Location: Peebles
(55.6412°N, 3.1714°W)
Time: 08:32:14
(UTC+01:00)

NOSS 3-3 (A) - Pass Details

Date: 07 February 2022
Orbit: 789 x 1423 km, 63.4° (Epoch: 23 April)

Event Time Altitude Azimuth Distance (km) Brightness Sun altitude
Exits shadow 07:02:45 - 252° (WSW) 3,192 6.2 -7.6°
Reaches altitude 10° 07:04:22 10° 255° (WSW) 2,604 5.7 -7.4°
Maximum altitude 07:10:23 60° 335° (NNW) 1,156 4.2 -6.6°
Drops below altitude 10° 07:17:29 10° 55° (NE) 3,046 7.1 -5.6°
Sets 07:20:28 0° 59° (ENE) 4,108 7.9 -5.2°
